User: anonymous   Login
Location: Astronomy Club of Akron Observatory
(40.9700°N, 81.5606°W)
Time: 04:48:56
(UTC-05:00)
Language:

ISS - Orbit

View from above orbital plane
View from above orbital plane
View from above satellite
View from above satellite

Ground track
Ground track

The orbit data is extracted from the following two-line orbital elements,

1 25544U 98067A   18346.02055802  .00016717  00000-0  10270-3 0  9023
2 25544  51.6387 212.5014 0004996 139.0979 221.0549 15.54099173 26165
Epoch (UTC): 12 December 2018 00:29:36
Eccentricity: 0.0004996
inclination: 51.6387°
perigee height: 401 km
apogee height: 408 km
right ascension of ascending node: 212.5014°
argument of perigee: 139.0979°
revolutions per day: 15.54099173
mean anomaly at epoch: 221.0549°
orbit number at epoch: 2616

The dashed part of the orbit path shows where the satellite is in the earth's shadow,  

DLR